Weather History for Jerome, ID

Change the Weather History Date:

Friday, December 28, 2012

  Actual Average Record
Temperature  
Mean Temperature 19 °F 26 °F  
Max Temperature 27 °F 33 °F 59 °F (1980)
Min Temperature 11 °F 19 °F -4 °F (1985)
Degree Days  
Heating Degree Days 46 39  
Month to date heating degree days 925 1061  
Since 1 July heating degree days 2129 2612  
Cooling Degree Days 0 0  
Month to date cooling degree days 0 0  
Year to date cooling degree days 750 510  
Moisture  
Dew Point 14 °F    
Average Humidity 80    
Maximum Humidity 96    
Minimum Humidity 63    
Precipitation  
Precipitation 0.00 in 0.04 in 0.42 in (1973)
Month to date precipitation 1.61 1.39  
Year to date precipitation 10.42 10.71  
Sea Level Pressure  
Sea Level Pressure 30.26 in    
Wind  
Wind Speed 9 mph (North)    
Max Wind Speed 21 mph    
Max Gust Speed 26 mph    
Visibility 10 miles    
Events      
T = Trace of Precipitation, MM = Missing Value Source: NWS Daily Summary

Daily Weather History Graph

Daily Weather History Graph

Search for Another Location

Airport:

Trip Planner

Search our weather history database for the weather conditions in past years. The results will help you decide how hot, cold, wet, or windy it might be!

Date:

Astronomy

Dec. 28, 2012 Rise Set
Actual Time 8:07 AM MST 5:11 PM MST
Civil Twilight 7:35 AM MST 5:43 PM MST
Nautical Twilight 6:59 AM MST 6:19 PM MST
Astronomical Twilight 6:25 AM MST 6:54 PM MST
Moon 5:53 PM MST (12/28) 8:03 AM MST (12/28)
Length of Visible Light 10h 08m
Length of Day
9h 04m
Full, 100% of the Moon is Illuminated
Dec 28
Full
Jan 4
Last Quarter
Jan 11
New
Jan 18
First Quarter
Jan 26
Full

Hourly Weather History & Observations

Time (MST) Temp. Windchill Dew Point Humidity Pressure Visibility Wind Dir Wind Speed Gust Speed Precip Events Conditions
12:32 AM 21.2 °F 10.1 °F 15.8 °F 80% 30.09 in 10.0 mi SW 10.4 mph - N/A   Overcast
12:53 AM 21.9 °F 11.7 °F 16.0 °F 78% 30.20 in 10.0 mi WSW 9.2 mph - N/A   Overcast
1:29 AM 21.2 °F 10.1 °F 15.8 °F 80% 30.10 in 10.0 mi SW 10.4 mph - N/A   Overcast
1:53 AM 21.0 °F 10.6 °F 15.1 °F 78% 30.22 in 10.0 mi WSW 9.2 mph - N/A   Overcast
2:32 AM 19.4 °F 7.2 °F 14.0 °F 80% 30.11 in 10.0 mi SW 11.5 mph - N/A   Mostly Cloudy
2:53 AM 19.0 °F 6.8 °F 14.0 °F 81% 30.24 in 10.0 mi WSW 11.5 mph - N/A   Clear
4:53 AM 18.0 °F 9.8 °F 12.9 °F 81% 30.25 in 10.0 mi SW 5.8 mph - N/A   Clear
5:53 AM 17.1 °F 8.7 °F 12.9 °F 84% 30.25 in 10.0 mi SW 5.8 mph - N/A   Clear
6:53 AM 17.1 °F 10.0 °F 12.9 °F 84% 30.27 in 10.0 mi WSW 4.6 mph - N/A   Clear
7:53 AM 17.1 °F 11.7 °F 12.9 °F 84% 30.28 in 10.0 mi SW 3.5 mph - N/A   Clear
8:53 AM 15.1 °F - 12.9 °F 91% 30.30 in 10.0 mi Calm Calm - N/A   Clear
9:53 AM 18.0 °F - 15.1 °F 88% 30.31 in 10.0 mi Calm Calm - N/A   Overcast
11:53 AM 24.1 °F - 17.1 °F 75% 30.30 in 10.0 mi Calm Calm - N/A   Overcast
12:53 PM 25.0 °F 18.1 °F 18.0 °F 75% 30.28 in 10.0 mi NNE 5.8 mph - N/A   Scattered Clouds
1:53 PM 26.1 °F 18.4 °F 17.1 °F 69% 30.25 in 10.0 mi East 6.9 mph - N/A   Clear
2:53 PM 27.0 °F 23.0 °F 16.0 °F 63% 30.26 in 10.0 mi ENE 3.5 mph - N/A   Clear
3:53 PM 21.9 °F 9.8 °F 16.0 °F 78% 30.29 in 10.0 mi NNE 12.7 mph - N/A   Clear
5:53 PM 14.0 °F -2.5 °F 12.0 °F 92% 30.32 in 10.0 mi NE 17.3 mph - N/A   Clear
6:53 PM 15.1 °F -0.6 °F 12.0 °F 88% 30.32 in 10.0 mi NE 16.1 mph - N/A   Clear
7:53 PM 17.1 °F 2.0 °F 12.9 °F 84% 30.32 in 10.0 mi NE 16.1 mph - N/A   Clear
8:53 PM 16.0 °F 0.1 °F 12.0 °F 84% 30.32 in 10.0 mi ENE 17.3 mph - N/A   Clear
9:53 PM 12.9 °F -4.4 °F 9.0 °F 84% 30.32 in 10.0 mi NE 18.4 mph - N/A   Clear
10:53 PM 12.0 °F -5.1 °F 8.1 °F 84% 30.32 in 10.0 mi NE 17.3 mph - N/A   Clear
11:53 PM 12.0 °F -5.6 °F 8.1 °F 84% 30.32 in 10.0 mi NE 18.4 mph - N/A   Clear